User: anonymous   Login
Location: Vancouver
(49.2500°N, 123.1330°W)
Time: 13:27:26
(UTC-07:00)
Language:

Iridium 21 - Orbit

View from above orbital plane
View from above orbital plane
View from above satellite
View from above satellite

Ground track
Ground track

The orbit data is extracted from the following two-line orbital elements,

1 25778U 99032B   17114.88518110 +.00000151 +00000-0 +46743-4 0  9993
2 25778 086.3968 246.2207 0002071 094.5014 265.6419 14.34216105940392
Epoch (UTC): 24 April 2017 21:14:39
Eccentricity: 0.0002071
inclination: 86.3968°
perigee height: 776 km
apogee height: 779 km
right ascension of ascending node: 246.2207°
argument of perigee: 94.5014°
revolutions per day: 14.34216105
mean anomaly at epoch: 265.6419°
orbit number at epoch: 94039

The dashed part of the orbit path shows where the satellite is in the earth's shadow,  

DLR